Regional Weather Roundup
Issued by NWS

Home | Current Version | Previous Version | Graphics & Text | Print | Product List | Glossary On
Versions: 1 2 3 4 5 6 7 8 9 10 11 12 13 14 15 16 17 18 19 20 21 22 23 24 25 26 27 28 29 30 31 32 33 34 35 36 37 38 39 40 41 42 43 44 45 46 47 48 49 50
000
ASUS45 KCYS 180610
RWRWY

WYOMING REGIONAL WEATHER ROUNDUP
NATIONAL WEATHER SERVICE CHEYENNE WY
1200 AM MDT WED OCT 18 2017

NOTE:  "FAIR" INDICATES FEW OR NO CLOUDS BELOW 12,000 FEET
WITH NO SIGNIFICANT WEATHER AND/OR OBSTRUCTIONS TO VISIBILITY.

WYZ001-180700-
YELLOWSTONE NATIONAL PARK

CITY           SKY/WX    TMP DP  RH WIND       PRES   REMARKS
LK YELLOWSTONE NOT AVBL
W YELLOWSTONE  NOT AVBL

$$
WYZ002>013-054>058-071-098>099-180700-
NORTHERN WYOMING

CITY           SKY/WX    TMP DP  RH WIND       PRES   REMARKS
JACKSON        FAIR      49  14  24 SW12G20   30.15S
CODY           FAIR      63  12  13 SE14G37   29.92F
GREYBULL       FAIR      52  25  35 S7        29.89R
6HR MIN TEMP:  49; 6HR MAX TEMP:  70;

WORLAND        FAIR      47  29  49 VRB5      29.88F
6HR MIN TEMP:  45; 6HR MAX TEMP:  65;

SHERIDAN       FAIR      62  21  20 VRB5      29.80R
6HR MIN TEMP:  57; 6HR MAX TEMP:  73;

BUFFALO        FAIR      66  11  11 SW22G30   29.85F
6HR MIN TEMP:  58; 6HR MAX TEMP:  72;

GILLETTE         N/A     64  19  17 SW23G35   29.81F
6HR MIN TEMP:  52; 6HR MAX TEMP:  66;

HULETT         FAIR      63  21  20 SW16      29.81F
NEWCASTLE      FAIR      54  21  28 NW6       29.89F

$$
WYZ014>020-022>026-101>103-180700-
CENTRAL WYOMING

CITY           SKY/WX    TMP DP  RH WIND       PRES   REMARKS
BIG PINEY      FAIR      33   9  36 NW8       30.21F WCI  26
6HR MIN TEMP:  29; 6HR MAX TEMP:  56;

PINEDALE       FAIR      28  18  64 W7        30.22S WCI  21
DUBOIS         FAIR      50   5  16 W21G31    30.10S
LANDER         FAIR      54  11  18 VRB6      30.02S
6HR MIN TEMP:  54; 6HR MAX TEMP:  67;

RIVERTON       FAIR      49  18  29 NE5       30.03S
6HR MIN TEMP:  46; 6HR MAX TEMP:  65;

CASPER         FAIR      59  12  15 SW24G33   29.98F
6HR MIN TEMP:  52; 6HR MAX TEMP:  61;

DOUGLAS        FAIR      52  16  24 N3        29.96F
6HR MIN TEMP:  51; 6HR MAX TEMP:  66;


$$
WYZ021-027>030-104>119-180700-
SOUTHERN WYOMING

CITY           SKY/WX    TMP DP  RH WIND       PRES   REMARKS
EVANSTON       FAIR      49   7  18 W7        30.25S
6HR MIN TEMP:  49; 6HR MAX TEMP:  64;

KEMMERER       FAIR      41   7  24 N8        30.25S
FORT BRIDGER   FAIR      46   3  17 SW8       30.27S
ROCK SPRINGS   FAIR      45   2  17 SW10      30.20S
6HR MIN TEMP:  44; 6HR MAX TEMP:  60;

DIXON          FAIR      33  15  46 CALM      30.25R
RAWLINS        FAIR      50   7  17 SW14      30.18S
6HR MIN TEMP:  50; 6HR MAX TEMP:  61;

SARATOGA       FAIR      46   9  21 W8        30.21S
LARAMIE        FAIR      56   6  13 SW22G33   30.16F
6HR MIN TEMP:  39; 6HR MAX TEMP:  60;

CHEYENNE       FAIR      58  12  16 W20       30.08F
6HR MIN TEMP:  48; 6HR MAX TEMP:  65;

TORRINGTON     FAIR      47  21  35 CALM      29.94F
6HR MIN TEMP:  45; 6HR MAX TEMP:  70;

PINE BLUFFS    FAIR      41  25  52 MISG      30.05F

$$



USA.gov is the U.S. government's official web portal to all federal, state and local government web resources and services.